Location: Acts Church of Fort Worth
(32.6786°N, 97.2668°W)
Time: 22:43:52
(UTC+00:00)

Cosmos 1805 Rocket - Pass Details

Date: 18 January 2026
Orbit: 599 x 623 km, 82.5° (Epoch: 10 February)

Event Time Altitude Azimuth Distance (km) Brightness Sun altitude
Rises 11:33:23 0° 188° (S) 2,887 7.0 -24.4°
Reaches altitude 10° 11:35:37 10° 190° (S) 1,984 6.1 -23.9°
Maximum altitude 11:40:01 77° 276° (W) 641 3.4 -23.0°
Drops below altitude 10° 11:44:26 10° 3° (N) 1,991 6.1 -22.1°
Sets 11:46:40 0° 5° (N) 2,898 6.9 -21.7°
